Flag for Tunisia Weather past 2 weeks in Houmt Souk (Djerba), Tunisia

Now
52 °F

Scattered clouds.


Feels Like: 46 °F
Forecast: 51 / 59 °F
Wind: 18 mph from Northwest

Location: Djerba Mellita

Current Time: Jan 27, 2015 at 7:48:13 AM

Latest Report: Jan 27, 2015 at 7:30 AM


Visibility: 5 mi

Pressure: 30.09 "Hg

Humidity: 62%

Dew point: 39 °F

Location of Houmt Souk (Djerba)Location

Historic Weather in Houmt Souk (Djerba) — Graph

°F

Houmt Souk (Djerba) temperature yesterday

Maximum temperature yesterday: 57 °F (at 7:00 PM)
Minimum temperature yesterday: 50 °F (at 5:00 AM)
Average temperature yesterday: 54 °F

Past Weeks' High & Low Weather Summary

 TemperatureHumidityPressure
High68 °F (Jan 15, 4:00 PM)100% (Jan 13, 7:00 AM)30.51 "Hg (Jan 13, 7:00 AM)
Low45 °F (Jan 17, 5:30 AM)28% (Jan 21, 3:00 PM)29.74 "Hg (Jan 22, 2:00 PM)
Average56 °F64%30.03 "Hg
* Reported Jan 12 6:00 AM — Jan 27 6:30 AM, Houmt Souk (Djerba), Weather by CustomWeather, © 2014

Note: Actual official high and low records may vary slightly from our data, if they occured in-between our weather recording intervals... More about our weather records

Advertising

Houmt Souk (Djerba) weather history for previous 24 hours

 ConditionsComfort  
Time TempWeatherWind HumidityBarometerVisibility
6:30 AM
Jan 27
52 °FPassing clouds.21 mph62%30.07 "Hg5 mi
6:00 AM52 °FPassing clouds.21 mph62%30.04 "Hg5 mi
5:30 AM52 °FPassing clouds.22 mph62%30.04 "Hg5 mi
5:00 AM52 °FPassing clouds.22 mph62%30.04 "Hg5 mi
4:30 AM52 °FPassing clouds.22 mph62%30.04 "Hg5 mi
4:00 AM52 °FPassing clouds.23 mph62%30.04 "Hg5 mi
3:30 AM52 °FPassing clouds.23 mph62%30.04 "Hg5 mi
3:00 AM52 °FPassing clouds.24 mph62%30.04 "Hg5 mi
2:00 AM54 °FPassing clouds.23 mph58%30.04 "Hg5 mi
1:30 AM54 °FPassing clouds.26 mph58%30.01 "Hg5 mi
1:00 AM54 °FPassing clouds.26 mph54%30.01 "Hg5 mi
12:30 AM54 °FPassing clouds.26 mph54%30.01 "Hg5 mi
12:00 AM54 °FPassing clouds.26 mph58%30.01 "Hg5 mi
11:30 PM
Jan 26
54 °FPassing clouds.25 mph58%30.01 "Hg5 mi
11:00 PM54 °FPassing clouds.24 mph58%30.01 "Hg5 mi
10:30 PM55 °FPassing clouds.24 mph55%30.01 "Hg5 mi
10:00 PM55 °FPassing clouds.23 mph55%30.01 "Hg5 mi
9:30 PM55 °FPassing clouds.24 mph55%30.01 "HgN/A
9:00 PM55 °FPassing clouds.23 mph55%29.98 "HgN/A
8:30 PM57 °FPassing clouds.26 mph51%29.98 "HgN/A
8:00 PM57 °FPassing clouds.23 mph51%29.98 "HgN/A
7:30 PM57 °FLight rain. Passing clouds.21 mph51%29.95 "HgN/A
7:00 PM57 °FPassing clouds.17 mph59%29.95 "HgN/A
6:30 PM55 °FPassing clouds.16 mph59%29.95 "HgN/A
6:00 PM55 °FPassing clouds.14 mph63%29.95 "HgN/A
5:30 PM55 °FScattered clouds.12 mph59%29.95 "HgN/A
5:00 PM55 °FScattered clouds.14 mph63%29.95 "HgN/A
4:30 PM55 °FScattered clouds.15 mph55%29.95 "HgN/A
4:00 PM55 °FScattered clouds.16 mph55%29.92 "HgN/A
3:30 PM55 °FScattered clouds.15 mph59%29.92 "HgN/A
3:00 PM55 °FScattered clouds.16 mph55%29.92 "HgN/A
2:30 PM55 °FScattered clouds.14 mph51%29.95 "HgN/A
2:00 PM55 °FScattered clouds.14 mph55%29.95 "HgN/A
1:30 PM55 °FScattered clouds.16 mph51%29.95 "HgN/A
1:00 PM55 °FPassing clouds.17 mph51%29.95 "HgN/A
12:30 PM55 °FPassing clouds.16 mph47%29.95 "HgN/A
12:00 PM55 °FPassing clouds.14 mph51%29.98 "HgN/A
11:30 AM55 °FPassing clouds.14 mph55%29.98 "HgN/A
11:00 AM54 °FPassing clouds.14 mph58%29.98 "HgN/A
10:30 AM54 °FPassing clouds.13 mph58%29.98 "HgN/A
10:00 AM52 °FPassing clouds.14 mph62%29.98 "HgN/A
9:30 AM54 °FPassing clouds.12 mph63%29.95 "HgN/A
9:00 AM52 °FPassing clouds.13 mph62%29.95 "HgN/A
8:30 AM52 °FPassing clouds.14 mph58%29.95 "Hg5 mi
8:00 AM50 °FScattered clouds.10 mph67%29.95 "Hg5 mi
7:30 AM50 °FScattered clouds.9 mph67%29.95 "Hg5 mi
7:00 AM50 °FPassing clouds.10 mph67%29.95 "Hg5 mi
Weather by CustomWeather, © 2014

See weather overviewHow to use our weather pages